Weather reports worldwide

Advertisment
Wattisham, United Kingdom (3590): temperature & dewpoint: 12.10.2018 13:00:00 - 18.10.2018 13:00:00 (BST)Wattisham, United Kingdom (3590): temperature -20cm & temperature -100cm: 12.10.2018 13:00:00 - 18.10.2018 13:00:00 (BST)Wattisham, United Kingdom (3590): wind speed & gusts: 12.10.2018 13:00:00 - 18.10.2018 13:00:00 (BST)Wattisham, United Kingdom (3590): wind direction: 12.10.2018 13:00:00 - 18.10.2018 13:00:00 (BST)Wattisham, United Kingdom (3590): reduced air pressure: 12.10.2018 13:00:00 - 18.10.2018 13:00:00 (BST)Wattisham, United Kingdom (3590): visibility: 12.10.2018 13:00:00 - 18.10.2018 13:00:00 (BST)Wattisham, United Kingdom (3590): sunshine duration: 12.10.2018 13:00:00 - 18.10.2018 13:00:00 (BST)Wattisham, United Kingdom (3590): precipitation: 12.10.2018 13:00:00 - 18.10.2018 13:00:00 (BST)
Date & Time tt [°C] td [°C] tt -20cm [°C] tt -100cm [°C] ff [km/h] ff [kn] fx [km/h] fx [kn] dd ppp [hPa] vv [km] sd [min] rr [mm]
18.10.2018 13:00:00 13,5 7,7 - - 16 9 - - NE 1027,4 10 54 0,0
18.10.2018 12:00:00 13,7 9,4 - - 18 10 - - NE 1027,6 10 54 0,0
18.10.2018 11:00:00 12,5 9,9 - - 21 11 - - NE 1027,9 10 60 0,0
18.10.2018 10:00:00 11,5 10,7 13,7 13,9 13 7 - - NNE 1027,6 10 60 0,0
18.10.2018 09:00:00 9,6 9,6 - - 11 6 - - NE 1027,3 10 54 0,0
18.10.2018 08:00:00 7,3 7,3 - - 11 6 - - NNE 1026,8 10 0 0,0
18.10.2018 07:00:00 7,4 7,4 - - 11 6 - - N 1026,2 0,6 0 0,0
18.10.2018 06:00:00 8,0 8,0 - - 11 6 - - N 1026,0 0,3 0 0,0
18.10.2018 05:00:00 8,6 8,6 - - 11 6 - - N 1025,6 0,3 0 0,0
18.10.2018 04:00:00 8,5 8,5 - - 11 6 - - N 1025,4 0,3 0 0,0
18.10.2018 03:00:00 7,1 6,9 - - 11 6 - - N 1025,5 0,1 0 0,0
18.10.2018 02:00:00 8,7 8,6 - - 15 8 - - N 1025,2 2,0 0 0,0
18.10.2018 01:00:00 9,2 9,2 - - 13 7 - - N 1024,9 2,9 - 0,2
18.10.2018 00:00:00 8,7 8,6 - - 11 6 - - N 1024,8 2,7 0 0,0
17.10.2018 23:00:00 9,8 9,7 - - 9 5 - - N 1024,4 0,2 0 0,0
17.10.2018 22:00:00 10,8 10,7 - - 8 4 - - NNE 1023,7 2,3 0 0,0
17.10.2018 21:00:00 11,0 10,7 - - 8 4 - - NNE 1023,0 3,5 0 0,0
17.10.2018 20:00:00 11,2 10,8 - - 8 4 - - N 1022,3 4,5 0 0,0
17.10.2018 19:00:00 12,1 11,8 - - 2 1 - - N 1021,6 6 0 0,0
17.10.2018 18:00:00 12,2 11,6 - - 8 4 - - N 1021,0 10 0 0,0
17.10.2018 17:00:00 13,7 12,4 - - 8 4 - - NNE 1020,4 10 0 0,0
17.10.2018 16:00:00 13,7 12,8 - - 9 5 - - N 1020,1 10 0 0,0
17.10.2018 15:00:00 13,6 13,0 - - 8 4 - - NW 1019,8 10 0 0,0
17.10.2018 14:00:00 13,3 12,7 - - 4 2 - - W 1019,5 6 0 0,0
17.10.2018 13:00:00 13,0 12,6 - - 8 4 - - W 1019,5 2,8 0 0,0
17.10.2018 12:00:00 12,8 12,1 - - 8 4 - - WSW 1019,3 4,0 0 0,0
17.10.2018 11:00:00 12,4 11,7 - - 9 5 - - SW 1019,1 7 0 0,0
17.10.2018 10:00:00 11,8 11,0 14,2 13,9 9 5 - - SW 1018,8 12 0 0,0
17.10.2018 09:00:00 11,0 10,5 - - 9 5 - - SSW 1018,4 7 0 0,0
17.10.2018 08:00:00 10,9 10,5 - - 11 6 - - SW 1018,1 9 0 0,0
17.10.2018 07:00:00 10,6 10,2 - - 13 7 - - SW 1017,6 5 0 0,0
17.10.2018 06:00:00 10,4 9,8 - - 11 6 - - SSW 1017,3 7 0 0,0
17.10.2018 05:00:00 10,9 9,9 - - 9 5 - - SSW 1017,0 15 0 0,0
17.10.2018 04:00:00 11,5 9,8 - - 13 7 - - WSW 1016,8 50 0 0,0
17.10.2018 03:00:00 11,3 10,6 - - 9 5 - - SW 1017,0 20 0 0,0
17.10.2018 02:00:00 12,1 10,4 - - 13 7 - - SW 1016,9 23 0 0,0
17.10.2018 01:00:00 12,5 11,0 - - 9 5 - - SW 1016,9 10 - 0,0
17.10.2018 00:00:00 12,8 12,2 - - 13 7 - - SW 1016,9 8 0 0,0
16.10.2018 23:00:00 13,2 12,5 - - 15 8 - - SSW 1016,7 10 0 0,0
16.10.2018 22:00:00 13,7 12,5 - - 15 8 - - SSW 1016,9 10 0 0,0
16.10.2018 21:00:00 14,1 12,3 - - 13 7 - - SSW 1016,7 10 0 0,0
16.10.2018 20:00:00 14,6 12,1 - - 11 6 - - SW 1016,4 10 0 0,0
16.10.2018 19:00:00 16,6 13,0 - - 15 8 - - SSW 1016,1 10 0 0,0
16.10.2018 18:00:00 17,4 13,0 - - 11 6 - - SSW 1015,5 10 12 0,0
16.10.2018 17:00:00 18,9 13,4 - - 16 9 - - SSW 1015,2 10 42 0,0
16.10.2018 16:00:00 20,3 13,8 - - 22 12 - - SSW 1015,2 10 - 0,0
16.10.2018 15:00:00 20,3 14,0 - - 26 14 - - SSW 1015,2 25 - 0,0
16.10.2018 14:00:00 20,1 13,3 - - 16 9 - - S 1015,1 10 - 0,0
16.10.2018 13:00:00 19,1 14,4 - - 15 8 - - S 1015,3 10 - 0,0
16.10.2018 12:00:00 17,3 14,0 - - 13 7 - - S 1016,0 10 - 0,0
16.10.2018 11:00:00 15,7 14,3 - - 15 8 - - SW 1016,3 5 - 0,0
16.10.2018 10:00:00 14,5 14,4 14,0 13,9 11 6 - - SSW 1016,1 4,0 - 0,0
16.10.2018 09:00:00 14,3 14,3 - - 11 6 - - S 1016,0 3,5 - 0,0
16.10.2018 08:00:00 14,2 14,2 - - 8 4 - - S 1015,8 3,0 - 0,0
16.10.2018 07:00:00 14,0 14,0 - - 11 6 - - SSE 1015,3 1,2 - 0,2
16.10.2018 06:00:00 13,6 13,5 - - 11 6 - - SSE 1015,2 0,1 - 0,0
16.10.2018 05:00:00 13,4 13,4 - - 13 7 - - SSE 1015,1 0,1 - 0,0
16.10.2018 04:00:00 13,4 13,3 - - 13 7 - - SSE 1014,9 0,2 - 0,0
16.10.2018 03:00:00 13,1 13,1 - - 8 4 - - SE 1015,3 0,2 - 0,0
16.10.2018 02:00:00 12,6 12,5 - - 5 3 - - SE 1015,7 0,1 - 0,0
16.10.2018 01:00:00 12,2 12,2 - - 8 4 - - SSE 1015,8 0,1 - 0,0
16.10.2018 00:00:00 12,3 12,3 - - 5 3 - - E 1015,4 0,1 - 0,0
15.10.2018 23:00:00 12,4 12,4 - - 8 4 - - ENE 1015,2 0,1 - 0,0
15.10.2018 22:00:00 12,6 12,6 - - 8 4 - - NE 1015,0 0,3 - 0,0
15.10.2018 21:00:00 12,6 12,6 - - 5 3 - - NE 1014,6 0,6 - 0,0
15.10.2018 20:00:00 12,6 12,5 - - 9 5 - - NNE 1014,4 2,5 - 0,0
15.10.2018 19:00:00 12,8 12,6 - - 13 7 - - NE 1014,0 6 - 0,0
15.10.2018 18:00:00 13,0 12,7 - - 13 7 - - NE 1013,3 10 - 0,0
15.10.2018 17:00:00 13,4 13,1 - - 16 9 - - NNE 1012,8 10 - 0,0
15.10.2018 16:00:00 13,6 13,4 - - 13 7 - - NNE 1012,5 8 - 0,0
15.10.2018 15:00:00 13,8 13,7 - - 16 9 - - NNE 1011,6 3,0 0 0,0
15.10.2018 14:00:00 13,9 13,8 - - 13 7 - - NNE 1011,3 3,5 0 0,0
15.10.2018 13:00:00 13,9 13,9 - - 13 7 - - N 1011,1 10 0 0,0
15.10.2018 12:00:00 13,4 13,4 - - 16 9 - - NNE 1010,5 4,0 0 0,0
15.10.2018 11:00:00 13,1 13,1 - - 16 9 - - N 1010,2 2,0 0 0,0
15.10.2018 10:00:00 12,9 12,9 14,0 13,7 18 10 - - N 1009,7 1,0 0 0,0
15.10.2018 09:00:00 13,0 13,0 - - 13 7 - - N 1009,2 0,5 0 0,2
15.10.2018 08:00:00 12,8 12,8 - - 15 8 - - NNE 1008,9 0,3 0 0,0
15.10.2018 07:00:00 12,8 12,7 - - 18 10 - - NE 1008,0 1,2 0 0,0
15.10.2018 06:00:00 12,5 12,4 - - 18 10 - - NE 1008,2 5 0 0,0
15.10.2018 05:00:00 12,2 12,1 - - 18 10 - - NNE 1008,2 11 0 0,0
15.10.2018 04:00:00 12,0 11,8 - - 18 10 - - NE 1008,2 20 0 0,2
15.10.2018 03:00:00 11,5 11,3 - - 22 12 - - NE 1008,5 9 0 5,8
15.10.2018 02:00:00 11,3 11,1 - - 22 12 - - NE 1008,9 8 0 5,8
15.10.2018 01:00:00 11,1 10,7 - - 26 14 - - NE 1008,4 5 - 1,2
15.10.2018 00:00:00 10,8 10,3 - - 28 15 - - NE 1008,6 10 0 0,2
14.10.2018 23:00:00 10,7 10,1 - - 28 15 - - NE 1009,0 10 0 0,0
14.10.2018 22:00:00 10,3 10,0 - - 22 12 - - NNE 1009,1 5 0 0,0
14.10.2018 21:00:00 10,2 9,9 - - 26 14 - - NNE 1008,8 8 0 0,0
14.10.2018 20:00:00 10,2 9,9 - - 26 14 - - NNE 1008,3 4,9 0 0,2
14.10.2018 19:00:00 10,3 10,0 - - 26 14 - - NNE 1008,0 5 0 0,2
14.10.2018 18:00:00 10,4 10,0 - - 24 13 - - N 1007,7 4,8 0 0,4
14.10.2018 17:00:00 10,8 10,4 - - 26 14 - - NNE 1006,8 3,2 0 0,2
14.10.2018 16:00:00 11,6 11,2 - - 28 15 - - N 1006,3 5 0 0,8
14.10.2018 15:00:00 12,7 12,3 - - 22 12 - - N 1005,2 8 0 0,4
14.10.2018 14:00:00 13,8 12,7 - - 21 11 - - N 1004,7 17 0 0,0
14.10.2018 13:00:00 14,6 13,5 - - 24 13 - - N 1004,5 19 0 0,0
14.10.2018 12:00:00 14,5 13,5 - - 18 10 - - NW 1005,0 10 0 0,0
14.10.2018 11:00:00 15,1 13,5 - - 9 5 - - ENE 1004,9 23 0 0,2
14.10.2018 10:00:00 15,1 13,2 14,7 13,7 15 8 - - N 1004,8 35 0 0,0
14.10.2018 09:00:00 14,9 12,7 - - 15 8 - - N 1005,2 50 0 0,0
14.10.2018 08:00:00 15,1 13,5 - - 11 6 - - N 1005,5 50 0 0,4
14.10.2018 07:00:00 16,2 15,4 - - 8 4 - - ESE 1005,3 11 0 0,0
14.10.2018 06:00:00 15,7 14,6 - - 5 3 - - WSW 1005,6 13 0 0,0
14.10.2018 05:00:00 16,9 15,2 - - 9 5 - - S 1006,1 22 0 0,0
14.10.2018 04:00:00 17,1 15,3 - - 11 6 - - SSE 1006,6 25 0 0,0
14.10.2018 03:00:00 17,5 15,6 - - 13 7 - - SSE 1006,7 21 0 0,0
14.10.2018 02:00:00 17,7 15,6 - - 15 8 - - SSE 1006,7 25 0 0,0
14.10.2018 01:00:00 18,0 15,6 - - 11 6 - - SSE 1007,1 35 - 0,0
14.10.2018 00:00:00 18,3 15,5 - - 13 7 - - SSE 1007,5 30 0 0,0
13.10.2018 23:00:00 19,0 15,7 - - 15 8 - - SSE 1007,7 27 0 0,0
13.10.2018 22:00:00 19,4 15,5 - - 13 7 - - SSE 1008,3 16 0 0,0
13.10.2018 21:00:00 19,6 15,4 - - 16 9 - - S 1008,6 12 0 0,0
13.10.2018 20:00:00 20,2 15,6 - - 21 11 - - S 1008,4 10 0 0,0
13.10.2018 19:00:00 20,2 15,6 - - 21 11 - - S 1008,1 35 0 0,0
13.10.2018 18:00:00 21,0 15,7 - - 24 13 - - S 1007,7 40 0 0,0
13.10.2018 17:00:00 21,3 15,8 - - 26 14 46 25 S 1008,0 35 6 0,0
13.10.2018 16:00:00 21,6 15,8 - - 26 14 46 25 S 1008,0 26 30 0,0
13.10.2018 15:00:00 21,5 15,7 - - 26 14 - - S 1008,5 29 18 0,0
13.10.2018 14:00:00 22,0 14,6 - - 24 13 48 26 S 1009,4 10 54 0,0
13.10.2018 13:00:00 22,9 14,7 - - 22 12 - - S 1010,3 30 54 -
13.10.2018 12:00:00 22,3 14,1 - - 22 12 - - S 1011,2 30 60 0,0
13.10.2018 11:00:00 21,1 14,3 - - 24 13 - - S 1012,0 45 60 0,0
13.10.2018 10:00:00 19,5 13,9 14,2 13,7 26 14 - - S 1012,1 45 54 0,0
13.10.2018 09:00:00 17,6 13,5 - - 21 11 - - S 1012,0 40 12 0,0
13.10.2018 08:00:00 17,4 13,6 - - 21 11 - - S 1011,8 40 0 0,0
13.10.2018 07:00:00 17,6 13,4 - - 22 12 - - S 1011,6 50 0 0,0
13.10.2018 06:00:00 18,3 13,0 - - 18 10 - - S 1011,8 45 0 0,0
13.10.2018 05:00:00 18,5 13,2 - - 21 11 - - S 1011,8 40 0 0,0
13.10.2018 04:00:00 18,2 13,3 - - 18 10 - - S 1012,0 45 0 0,0
13.10.2018 03:00:00 18,1 13,4 - - 18 10 - - S 1012,3 35 0 0,0
13.10.2018 02:00:00 18,8 13,3 - - 21 11 - - S 1012,3 45 0 0,0
13.10.2018 01:00:00 18,9 13,1 - - 22 12 - - S 1011,9 30 - 0,0
13.10.2018 00:00:00 19,1 13,3 - - 21 11 - - S 1011,8 35 0 0,0
12.10.2018 23:00:00 19,2 13,7 - - 21 11 - - S 1012,0 40 0 0,0
12.10.2018 22:00:00 20,1 12,4 - - 28 15 50 27 S 1011,9 45 0 0,0
12.10.2018 21:00:00 19,7 12,9 - - 28 15 48 26 SSW 1011,9 10 0 0,0
12.10.2018 20:00:00 19,5 13,7 - - 31 17 54 29 SSW 1011,7 45 0 0,0
12.10.2018 19:00:00 19,0 13,6 - - 28 15 57 31 S 1011,0 40 0 0,0
12.10.2018 18:00:00 19,4 13,5 - - 28 15 54 29 S 1010,6 35 12 0,0
12.10.2018 17:00:00 19,6 12,9 - - 28 15 55 30 S 1010,1 29 60 0,0
12.10.2018 16:00:00 20,0 11,2 - - 29 16 63 34 S 1010,3 40 54 0,0
12.10.2018 15:00:00 21,0 11,1 - - 34 18 54 29 S 1010,2 10 12 0,0
12.10.2018 14:00:00 18,9 12,4 - - 24 13 46 25 S 1010,7 10 24 0,0
12.10.2018 13:00:00 19,6 11,6 - - 28 15 50 27 S 1011,1 10 18 0,0

tt = temperature
td = dewpoint
tt -20cm = temperature -20cm
tt -100cm = temperature -100cm
ff = wind speed
fx = gusts
dd = wind direction
ppp = reduced air pressure
vv = visibility
sd = sunshine duration
rr = precipitation

Next stations